Weather History for Greenville, ME

Change the Weather History Date:

Tuesday, February 12, 2013

  Actual Average (KMLT) Record (KMLT)
Temperature  
Mean Temperature 31 °F 17 °F  
Max Temperature 34 °F 27 °F 58 °F (1903)
Min Temperature 28 °F 7 °F -26 °F (1914)
Degree Days  
Heating Degree Days 34 48  
Month to date heating degree days 591  
Since 1 July heating degree days 5337  
Cooling Degree Days 0 0  
Month to date cooling degree days 0  
Year to date cooling degree days 0  
Moisture  
Dew Point 27 °F    
Average Humidity 86    
Maximum Humidity 100    
Minimum Humidity 75    
Precipitation  
Precipitation 0.06 in 0.07 in 2.35 in (1955)
Month to date precipitation 0.73  
Year to date precipitation 3.66  
Sea Level Pressure  
Sea Level Pressure 29.52 in    
Wind  
Wind Speed 5 mph (NW)    
Max Wind Speed 12 mph    
Max Gust Speed 26 mph    
T = Trace of Precipitation, MM = Missing Value Source: NWS Daily Summary

Daily Weather History Graph

Daily Weather History Graph

Search for Another Location

Airport:

Trip Planner

Search our weather history database for the weather conditions in past years. The results will help you decide how hot, cold, wet, or windy it might be!

Date:

Astronomy

Feb. 12, 2013 Rise Set
Actual Time 6:44 AM EST 5:01 PM EST
Civil Twilight 6:13 AM EST 5:32 PM EST
Nautical Twilight 5:38 AM EST 6:07 PM EST
Astronomical Twilight 5:04 AM EST 6:41 PM EST
Moon 7:29 AM EST (2/12) 8:10 PM EST (2/12)
Length of Visible Light 11h 18m
Length of Day
10h 17m
Waxing Crescent, 7% of the Moon is Illuminated
Feb 12
Waxing Crescent
Feb 17
First Quarter
Feb 25
Full
Mar 4
Last Quarter
Mar 11
New

Hourly Weather History & Observations

Time (EST) Temp. Windchill Dew Point Humidity Pressure Visibility Wind Dir Wind Speed Gust Speed Precip Events Conditions
12:56 AM 28.9 °F - 28.0 °F 96% 29.52 in - Calm Calm - N/A   Unknown
1:56 AM 30.0 °F - 30.0 °F 100% 29.49 in - Calm Calm - 0.02 in   Unknown
2:56 AM 28.9 °F 21.9 °F 28.0 °F 96% 29.48 in - NNW 6.9 mph - 0.04 in   Unknown
3:56 AM 30.0 °F 21.7 °F 28.0 °F 92% 29.48 in - NNW 9.2 mph - N/A   Unknown
4:56 AM 30.0 °F 24.1 °F 28.0 °F 92% 29.47 in - Variable 5.8 mph - N/A   Unknown
5:56 AM 28.9 °F 23.9 °F 27.0 °F 92% 29.46 in - Variable 4.6 mph - N/A   Unknown
6:56 AM 28.9 °F 23.9 °F 27.0 °F 92% 29.47 in - WNW 4.6 mph - N/A   Unknown
7:56 AM 30.0 °F 21.7 °F 26.1 °F 85% 29.47 in - NW 9.2 mph - N/A   Unknown
8:56 AM 30.0 °F 24.1 °F 27.0 °F 88% 29.48 in - Variable 5.8 mph - N/A   Unknown
9:56 AM 30.9 °F 26.2 °F 27.0 °F 85% 29.48 in - Variable 4.6 mph - N/A   Unknown
10:56 AM 32.0 °F 28.7 °F 27.0 °F 82% 29.47 in - Variable 3.5 mph - N/A   Unknown
11:56 AM 33.1 °F 26.9 °F 28.0 °F 82% 29.47 in - Variable 6.9 mph - N/A   Unknown
12:56 PM 33.1 °F 30.0 °F 27.0 °F 78% 29.47 in - Variable 3.5 mph - N/A   Unknown
1:56 PM 34.0 °F 25.5 °F 27.0 °F 75% 29.48 in - NW 11.5 mph 26.5 mph N/A   Unknown
2:56 PM 33.1 °F 24.9 °F 28.0 °F 82% 29.51 in - NW 10.4 mph 23.0 mph N/A   Unknown
3:56 PM 32.0 °F 24.8 °F 27.0 °F 82% 29.52 in - WNW 8.1 mph - N/A   Unknown
4:56 PM 32.0 °F 25.6 °F 27.0 °F 82% 29.52 in - Variable 6.9 mph - N/A   Unknown
5:56 PM 32.0 °F 25.6 °F 28.0 °F 85% 29.55 in - Variable 6.9 mph - N/A   Unknown
6:56 PM 32.0 °F 23.6 °F 28.0 °F 85% 29.57 in - WNW 10.4 mph 21.9 mph N/A   Unknown
7:56 PM 30.9 °F 24.3 °F 27.0 °F 85% 29.61 in - Variable 6.9 mph - N/A   Unknown
8:56 PM 30.0 °F 22.4 °F 26.1 °F 85% 29.63 in - NW 8.1 mph 26.5 mph N/A   Unknown
9:56 PM 30.0 °F 23.2 °F 26.1 °F 85% 29.65 in - Variable 6.9 mph - N/A   Unknown
10:56 PM 30.0 °F 23.2 °F 25.0 °F 82% 29.66 in - Variable 6.9 mph - N/A   Unknown
11:56 PM 30.0 °F 25.2 °F 25.0 °F 82% 29.66 in - Variable 4.6 mph 17.3 mph N/A   Unknown